ACA687 CYYT-CYYZ

Flight info

Callsign ACA687
Flight time N/A
Altitude 34000
Route TEXED DCT TAGRA DCT MIILS DCT TUKIR RAGID6
Aircraft A321/M-SDE3FGHIRWY/LB1

Departure

Time 2026-04-29 09:53
Airport St. John's International Airport (CYYT)

Arrival

Time N/A
Airport Toronto Pearson International Airport (CYYZ)
Time Latitude Longitude Altitude Speed Heading
2026-04-29 09:22 47.61404 -52.74396 448 ft 0 kts 202°
2026-04-29 09:26 47.61415 -52.74389 449 ft 4 kts 206°
2026-04-29 09:26 47.61437 -52.74369 449 ft 0 kts 221°
2026-04-29 09:26 47.61405 -52.74395 449 ft 0 kts 202°
2026-04-29 09:30 47.61417 -52.74388 449 ft 4 kts 207°
2026-04-29 09:30 47.61439 -52.74366 449 ft 4 kts 224°
2026-04-29 09:30 47.61456 -52.74336 449 ft 4 kts 248°
2026-04-29 09:30 47.61460 -52.74300 449 ft 3 kts 289°
2026-04-29 09:31 47.61459 -52.74295 449 ft 0 kts 293°
2026-04-29 09:32 47.61461 -52.74300 449 ft 4 kts 293°
2026-04-29 09:32 47.61506 -52.74342 449 ft 9 kts
2026-04-29 09:32 47.61563 -52.74275 434 ft 11 kts 47°
2026-04-29 09:33 47.61632 -52.74283 438 ft 12 kts 323°
2026-04-29 09:33 47.61702 -52.74373 445 ft 14 kts 319°
2026-04-29 09:33 47.61773 -52.74462 452 ft 11 kts 319°
2026-04-29 09:33 47.61819 -52.74522 458 ft 6 kts 319°
2026-04-29 09:34 47.61865 -52.74582 461 ft 12 kts 319°
2026-04-29 09:34 47.61889 -52.74666 462 ft 10 kts 249°
2026-04-29 09:34 47.61839 -52.74761 460 ft 11 kts 229°
2026-04-29 09:34 47.61832 -52.74853 459 ft 10 kts 303°
2026-04-29 09:35 47.61882 -52.74924 460 ft 10 kts 318°
2026-04-29 09:35 47.61939 -52.74922 462 ft 9 kts 38°
2026-04-29 09:35 47.61968 -52.74871 460 ft 1 kts 50°
2026-04-29 09:35 47.61974 -52.74861 462 ft 0 kts 50°
2026-04-29 09:46 47.61974 -52.74860 459 ft 1 kts 50°
2026-04-29 09:47 47.61998 -52.74819 461 ft 8 kts 50°
2026-04-29 09:47 47.62000 -52.74755 460 ft 6 kts 123°
2026-04-29 09:47 47.61963 -52.74707 462 ft 8 kts 139°
2026-04-29 09:47 47.61883 -52.74603 462 ft 19 kts 139°
2026-04-29 09:48 47.61795 -52.74491 454 ft 19 kts 139°
2026-04-29 09:48 47.61702 -52.74373 433 ft 14 kts 139°
2026-04-29 09:48 47.61636 -52.74288 429 ft 13 kts 139°
2026-04-29 09:48 47.61622 -52.74175 437 ft 14 kts 56°
2026-04-29 09:49 47.61681 -52.74044 427 ft 11 kts 99°
2026-04-29 09:49 47.61633 -52.73960 420 ft 11 kts 139°
2026-04-29 09:49 47.61602 -52.73868 424 ft 9 kts 51°
2026-04-29 09:49 47.61704 -52.73864 436 ft 21 kts 356°
2026-04-29 09:50 47.61841 -52.73877 437 ft 18 kts 356°
2026-04-29 09:50 47.61968 -52.73889 445 ft 19 kts 355°
2026-04-29 09:50 47.62101 -52.73903 437 ft 19 kts 356°
2026-04-29 09:50 47.62222 -52.73915 441 ft 17 kts 356°
2026-04-29 09:51 47.62351 -52.73927 430 ft 16 kts 356°
2026-04-29 09:51 47.62464 -52.73937 428 ft 12 kts 356°
2026-04-29 09:51 47.62542 -52.73883 433 ft 14 kts 46°
2026-04-29 09:51 47.62564 -52.73776 423 ft 9 kts 99°
2026-04-29 09:52 47.62535 -52.73759 429 ft 4 kts 215°
2026-04-29 09:52 47.62525 -52.73803 430 ft 7 kts 265°
2026-04-29 09:52 47.62525 -52.73811 427 ft 0 kts 266°
2026-04-29 09:52 47.62516 -52.73994 438 ft 63 kts 266°
2026-04-29 09:53 47.62459 -52.75168 474 ft 159 kts 265°
2026-04-29 09:53 47.62379 -52.76937 1266 ft 181 kts 265°
2026-04-29 09:53 47.62303 -52.78780 2522 ft 175 kts 267°
2026-04-29 09:53 47.62231 -52.80624 3266 ft 183 kts 267°
2026-04-29 09:54 47.62157 -52.82538 3953 ft 189 kts 267°
2026-04-29 09:54 47.62079 -52.84513 4651 ft 194 kts 266°
2026-04-29 09:54 47.61999 -52.86478 5305 ft 172 kts 266°